GEFSMA_500_meanwind_150.txt.gz
Wind_Speed
5 4 4 3 2 1 1 1 0 1 1 1 1 1 1 1 1 2 2 2 3 3 3 4 4 4 4 4 4 5 6 6 6 6 6 6 6 6 5 5 5 5 5
6 5 4 3 2 2 2 1 1 0 1 1 1 1 1 1 1 1 1 2 2 3 3 3 4 4 4 4 4 5 5 6 7 7 6 7 7 7 6 5 6 6 6
7 5 5 4 3 3 2 1 1 1 0 1 1 1 1 2 1 2 2 2 2 2 3 3 3 3 3 3 3 4 4 5 6 7 7 7 7 6 6 6 6 6 6
8 7 6 5 5 4 3 2 2 1 1 1 1 1 1 2 2 2 2 2 2 2 2 2 2 3 3 3 3 3 4 4 5 5 6 7 7 7 6 6 6 7 7
9 8 7 6 6 5 4 3 2 2 1 1 1 1 1 1 1 1 1 2 2 2 2 1 2 3 3 3 3 3 4 4 4 5 5 6 7 7 7 7 7 7 7
10 9 7 7 6 6 5 4 3 3 2 2 2 2 1 1 1 1 1 2 2 2 2 2 1 2 3 3 3 3 4 4 5 5 6 6 6 6 6 6 7 7 7
10 10 9 8 8 7 6 5 4 4 3 2 2 2 2 1 1 1 1 1 1 1 2 2 2 2 3 3 3 4 4 4 5 5 6 7 7 7 7 7 7 7 8
10 10 10 10 10 9 8 6 6 5 4 3 3 2 2 2 1 1 1 2 2 2 2 2 3 3 2 3 3 4 4 5 4 5 5 6 7 7 7 8 8 8 9
11 11 11 10 11 10 9 8 7 6 5 5 4 4 3 3 2 3 2 3 3 3 4 4 3 3 3 3 3 4 5 5 5 6 6 6 7 8 8 8 9 9 10
12 12 11 11 11 11 10 9 9 8 7 6 6 6 5 5 4 4 4 4 5 5 5 5 4 4 4 4 4 5 5 6 6 7 7 8 8 9 9 9 10 11 11
12 13 13 12 12 12 11 11 10 9 9 8 8 7 7 7 6 6 6 6 6 6 7 7 6 6 5 5 5 6 6 7 7 7 8 9 9 10 10 11 11 12 12
12 13 13 13 13 13 13 12 11 11 10 10 9 9 9 8 8 8 8 8 8 8 8 8 8 8 7 7 7 7 8 8 9 9 9 10 10 11 12 12 13 13 14
13 13 14 14 14 14 14 14 13 12 12 12 11 11 11 10 10 10 10 10 10 10 10 10 10 10 10 11 11 11 11 11 11 12 12 13 13 13 14 14 15 15 16
13 13 14 14 14 15 15 15 15 15 14 14 14 13 13 13 13 12 11 11 12 12 12 13 13 13 14 14 14 14 14 14 15 15 15 15 16 16 17 17 18 18 19
13 13 14 14 15 16 16 17 16 16 17 17 16 16 16 16 16 15 14 14 15 15 15 15 15 16 17 17 17 17 17 17 18 18 18 18 18 19 20 20 21 21 22
13 13 14 14 15 16 16 17 17 17 17 18 18 18 19 18 18 18 18 18 18 17 17 18 19 19 20 20 20 20 21 21 21 22 22 21 22 22 23 23 23 24 24
10 12 13 15 16 16 16 17 18 19 19 19 19 20 20 20 20 20 20 20 20 20 21 21 22 22 22 22 22 23 24 24 24 24 25 25 25 26 26 26 26 27 28
11 12 13 14 14 16 17 18 19 20 20 20 21 22 22 21 21 22 22 22 22 23 24 25 25 24 24 25 25 26 26 27 28 28 28 28 29 30 30 30 30 31 31
12 13 14 15 16 17 18 18 19 20 21 21 22 23 22 22 23 23 24 25 25 25 25 26 26 27 27 28 29 29 29 30 31 31 32 33 33 33 33 34 34 35 35
11 13 14 15 17 18 18 18 20 21 22 22 22 23 24 24 24 25 25 26 26 26 26 27 27 28 30 30 31 32 33 33 34 35 35 36 36 36 36 36 37 37 38
12 13 14 16 17 18 18 19 20 21 22 23 22 23 24 25 26 26 26 26 27 27 28 28 28 29 30 31 32 32 33 35 36 37 37 37 37 38 39 39 39 40 41
13 14 14 16 17 17 18 20 21 22 22 23 23 23 24 25 26 27 27 27 28 28 29 30 30 30 31 32 33 34 35 36 37 37 38 38 38 39 40 40 41 42 43
15 15 16 18 18 19 20 20 21 22 23 23 23 23 24 25 26 27 27 28 28 29 30 30 31 31 32 33 34 35 35 36 37 38 39 40 40 41 42 43 43 44 45
16 16 16 16 17 18 20 20 21 22 23 23 23 23 24 26 26 27 28 28 29 30 31 32 33 34 34 34 34 35 37 37 38 39 40 41 42 43 44 45 46 46 46
17 17 17 18 19 19 20 21 22 22 23 24 25 26 27 27 28 29 29 30 31 31 32 33 33 34 34 35 35 36 37 37 39 40 41 42 43 44 45 46 47 48 49
19 19 19 19 20 21 22 22 24 24 25 25 26 27 28 29 30 30 30 31 31 32 33 34 34 34 35 36 36 37 37 37 38 40 41 42 43 44 45 47 48 49 50

GEFSMA_500_meanwind_156.txt.gz
Wind_Speed
3 2 2 1 1 1 1 1 1 1 1 1 1 1 1 1 1 1 1 2 2 3 3 3 3 3 3 3 4 4 4 5 5 5 5 5 5 5 5 5 5 5 5
4 3 3 2 2 2 1 1 1 1 1 1 1 1 1 1 1 1 1 1 2 2 3 3 3 3 3 3 4 4 4 4 5 5 5 5 6 6 6 6 6 6 6
5 4 4 4 3 2 1 1 0 1 1 1 1 1 1 2 2 1 1 1 2 2 2 2 3 3 3 3 3 4 4 4 5 5 5 6 6 6 6 6 6 6 6
6 6 5 4 4 3 2 1 1 1 1 1 1 1 1 1 2 2 1 1 1 2 2 2 3 3 3 3 3 4 4 4 5 5 5 6 6 6 7 7 7 7 7
7 6 5 5 4 3 2 2 1 1 1 1 1 1 1 1 1 2 2 1 1 2 2 3 3 3 3 4 4 4 4 5 5 5 5 6 6 6 7 7 7 7 8
8 7 6 6 5 5 4 3 2 1 1 0 0 1 1 1 1 2 2 2 2 2 2 3 3 3 4 4 4 4 4 5 5 5 5 5 6 6 7 7 7 8 8
9 8 8 7 6 6 5 4 3 2 2 1 1 1 1 1 2 2 2 2 3 3 3 3 3 3 4 4 5 5 5 5 5 6 6 6 7 7 8 8 8 9 9
9 10 9 9 8 8 7 5 5 4 3 3 2 2 2 2 3 3 3 4 3 3 4 4 4 4 5 5 6 6 6 6 7 7 7 8 8 8 9 10 10 10 10
10 10 10 11 10 9 9 8 7 6 5 5 4 4 4 4 4 4 4 5 5 5 5 5 5 5 5 5 5 5 6 7 7 8 8 9 9 9 10 11 11 11 12
10 11 11 12 12 11 10 9 8 8 7 7 6 6 6 6 6 6 6 6 6 6 6 6 6 6 6 6 6 7 7 8 8 9 9 10 11 11 11 12 12 13 13
11 11 11 12 13 12 12 11 10 9 9 8 8 8 8 8 8 8 8 8 8 8 7 7 7 8 8 8 8 9 9 10 10 10 11 11 12 12 13 13 14 14 15
12 12 13 13 13 13 12 12 12 11 10 10 10 9 9 9 9 9 9 9 9 9 10 10 10 10 10 11 11 11 11 12 12 12 13 13 13 14 15 15 16 16 17
11 12 13 14 14 14 13 13 13 13 13 12 12 12 11 12 12 12 11 11 11 12 12 12 12 12 12 13 14 14 14 14 15 15 16 16 16 17 17 17 18 19 19
11 12 13 14 14 14 14 14 14 14 14 15 15 15 15 15 15 15 15 15 15 14 15 15 15 16 16 16 16 17 17 17 18 18 18 18 19 20 20 21 21 21 22
11 12 13 14 15 15 15 15 15 16 16 16 16 17 17 18 18 18 18 18 17 17 18 18 18 19 19 20 19 20 20 20 21 21 21 22 22 23 24 24 24 24 25
10 12 13 14 14 15 16 16 16 17 17 18 18 18 19 20 20 21 21 21 21 20 21 21 21 22 22 22 22 23 24 24 24 24 24 25 26 26 26 27 26 27 28
10 11 11 12 13 15 16 17 18 18 18 19 19 20 20 21 22 22 23 23 23 24 24 24 24 25 26 26 26 26 26 27 27 28 28 28 29 30 30 30 31 31 31
8 9 11 12 14 15 16 17 19 19 20 20 21 22 22 23 24 24 24 24 25 26 27 27 27 27 28 28 28 29 29 30 30 31 31 32 33 33 33 34 34 34 35
10 10 11 13 15 16 17 18 19 20 20 21 22 23 23 24 25 25 25 26 26 27 28 28 29 29 30 30 30 30 31 31 32 33 34 35 35 35 36 36 36 37 38
11 12 13 14 16 17 18 19 20 21 21 22 23 23 24 25 26 25 26 27 27 28 29 29 29 30 30 31 31 32 33 33 34 35 35 36 37 38 38 38 39 39 40
14 14 15 16 18 19 20 21 22 23 23 23 23 24 24 25 26 26 27 27 28 28 29 30 30 30 30 31 32 33 33 34 35 35 36 36 37 38 39 40 40 41 42
15 16 17 17 19 20 21 22 23 24 24 24 24 24 25 26 27 28 28 29 29 30 30 31 31 31 32 33 33 34 35 35 35 36 37 38 39 40 41 42 42 43 43
17 17 18 18 19 19 20 21 22 22 23 24 25 25 26 27 28 29 29 29 30 31 31 32 32 33 34 34 35 36 36 37 37 38 39 39 41 41 42 42 43 43 44
19 19 19 19 20 20 20 21 22 23 23 24 25 26 27 28 28 29 29 30 31 31 32 33 34 35 35 36 37 37 38 38 38 39 40 40 41 41 42 42 43 43 43
20 20 21 21 20 21 22 22 23 24 25 26 27 27 27 27 28 29 30 31 32 33 34 35 36 36 36 36 37 38 38 38 39 39 41 42 41 42 42 43 43 44 45
21 21 22 22 23 23 23 23 24 25 26 26 26 27 27 28 29 30 31 32 33 34 34 35 35 36 36 36 37 38 39 39 39 39 40 41 41 42 42 43 44 45 46

GEFSMA_500_meanwind_162.txt.gz
Wind_Speed
4 4 4 4 3 3 3 3 3 3 3 3 2 2 1 1 1 0 1 1 1 1 1 1 1 1 2 2 2 2 3 3 3 3 4 4 4 4 4 4 4 4 5
5 5 4 4 3 3 2 2 2 2 2 2 2 1 1 0 1 1 1 1 1 1 1 1 2 2 2 2 2 3 3 4 4 4 4 4 4 4 4 4 4 4 5
6 6 5 5 4 3 2 2 2 2 2 2 2 1 0 0 1 1 1 1 2 2 2 2 2 2 2 2 2 2 2 3 4 4 4 4 4 5 4 4 5 5 5
6 6 6 5 4 3 3 2 2 2 2 2 2 1 1 1 0 0 0 0 1 2 2 2 2 2 3 2 3 3 3 4 4 4 4 5 5 6 6 6 6 6 6
6 7 7 6 6 5 4 3 3 2 2 2 2 1 1 0 0 0 1 1 1 2 2 3 3 3 3 3 3 3 4 4 4 4 4 5 5 6 6 6 7 7 6
7 7 7 7 6 5 4 4 3 3 3 3 2 1 1 1 1 1 2 2 2 2 2 3 4 4 4 4 4 4 4 4 4 4 5 5 6 6 7 7 7 7 8
8 8 8 8 7 6 5 5 4 4 3 3 2 2 2 2 2 2 2 3 3 3 4 4 4 5 5 4 4 5 5 5 6 6 6 7 7 7 7 8 9 9 9
7 8 8 8 8 8 7 6 5 4 4 4 3 3 3 3 4 4 4 4 4 4 4 4 5 5 5 5 5 5 6 6 7 7 7 8 9 9 9 10 10 10 11
8 8 8 8 8 9 8 8 7 6 6 5 5 4 4 4 5 5 5 5 5 5 6 6 6 6 6 7 7 7 7 8 8 8 8 9 10 10 10 11 11 12 12
7 8 9 9 8 9 9 9 8 7 7 7 7 6 6 6 6 6 7 7 7 7 7 7 8 8 7 8 8 9 9 9 9 10 10 10 11 11 11 11 12 12 13
8 9 10 10 10 10 10 10 10 9 9 8 8 8 8 8 8 8 8 9 9 9 9 9 9 10 10 10 10 10 11 11 12 12 12 12 12 13 13 13 13 14 14
9 9 10 11 11 11 12 12 12 11 11 10 10 10 10 10 10 10 10 11 11 11 11 11 11 12 12 12 12 13 13 14 15 15 15 15 15 15 15 15 16 16 17
8 10 10 11 11 12 12 13 13 13 12 12 12 12 12 12 12 12 13 13 14 14 14 14 14 14 15 15 16 16 16 16 17 18 19 18 19 19 19 19 19 19 20
9 9 9 10 11 12 13 14 14 14 14 14 14 15 15 15 15 15 15 16 17 17 18 18 18 17 18 18 19 19 19 20 21 21 22 22 22 22 23 23 23 23 23
9 10 10 10 11 12 14 15 15 15 16 15 16 16 17 18 18 18 18 18 19 21 21 22 22 22 22 22 22 22 23 23 24 24 25 25 25 25 25 26 26 26 27
9 10 11 12 12 13 14 14 16 17 17 18 18 19 19 20 20 21 21 21 22 22 23 24 24 24 24 25 25 25 25 26 27 27 28 28 28 28 28 28 28 29 29
9 10 11 12 13 13 14 14 16 17 18 19 20 21 21 22 23 23 23 23 24 24 25 26 26 26 27 27 28 28 28 29 29 29 30 30 30 31 31 31 31 31 31
10 10 10 11 13 13 14 15 16 18 19 20 21 21 22 23 24 24 25 25 25 26 26 26 27 28 28 28 29 29 30 30 30 30 31 32 32 32 33 34 34 34 34
11 11 11 12 13 14 15 16 17 19 20 21 22 23 23 24 24 25 26 26 27 27 27 28 29 30 29 29 31 31 32 32 31 32 32 33 34 35 35 36 36 37 37
12 12 13 14 15 16 17 18 19 20 21 22 23 24 24 24 25 26 27 28 28 27 28 29 30 30 30 31 32 32 33 33 33 34 34 35 36 36 36 37 37 37 38
14 14 15 15 16 17 19 20 21 21 22 23 23 24 25 25 26 27 27 27 28 28 28 29 30 30 31 32 32 32 33 33 33 35 36 37 38 38 38 38 38 39 39
15 16 17 18 19 19 20 21 22 23 23 24 25 26 26 27 27 27 28 28 29 28 29 30 30 31 32 33 34 34 35 35 35 36 37 38 39 39 39 38 39 40 41
17 18 18 19 20 21 21 23 24 25 25 25 25 25 26 27 27 26 27 27 28 28 29 30 30 31 32 33 35 35 36 37 37 37 38 39 40 40 40 41 42 43 44
19 19 20 20 21 22 23 23 24 25 25 26 26 26 27 27 27 27 28 28 29 30 31 32 32 32 33 34 35 36 37 37 37 38 39 39 39 40 41 41 42 42 42
20 21 21 22 22 24 24 25 25 25 26 26 27 27 27 27 27 29 29 30 31 31 32 33 33 34 34 34 35 36 36 37 38 38 38 39 40 41 42 43 43 42 42
21 22 23 24 24 25 25 26 26 26 27 27 28 28 28 29 29 29 30 31 31 32 33 33 34 35 35 35 35 36 37 38 39 40 40 41 42 43 43 43 43 43 43

GEFSMA_500_meanwind_168.txt.gz
Wind_Speed
2 2 2 3 3 2 2 2 2 2 2 1 1 0 0 1 0 0 1 1 1 1 1 1 1 1 1 2 2 2 2 2 3 3 3 3 3 3 3 2 2 2 3
3 2 2 3 3 2 2 2 1 2 2 1 1 1 1 0 0 1 1 1 1 1 1 1 2 2 2 2 2 3 3 3 3 3 3 4 3 4 4 3 3 3 4
5 4 4 3 3 3 2 2 2 2 2 2 2 1 1 1 1 1 1 1 1 1 2 2 2 2 2 2 2 3 3 4 4 4 4 4 4 5 5 5 5 5 5
5 5 5 4 4 3 3 3 2 2 2 2 1 1 1 2 2 1 1 1 1 2 2 3 3 3 3 3 3 3 4 4 4 5 5 5 5 6 6 6 6 6 6
6 5 5 5 4 4 3 2 2 2 2 2 2 2 2 2 1 1 1 1 2 2 3 3 4 3 4 4 4 4 4 4 4 4 5 5 6 6 7 7 7 7 8
6 6 6 6 5 4 4 3 3 3 3 2 2 2 2 2 2 2 2 2 2 3 3 4 4 4 4 4 5 5 5 5 5 5 5 6 7 7 8 8 8 9 9
6 7 6 7 6 5 4 4 5 4 4 4 3 3 3 3 3 3 4 4 4 4 4 4 4 5 5 5 5 6 6 6 6 6 7 7 8 8 8 9 9 10 10
5 6 7 7 6 6 6 5 6 6 5 5 4 4 4 4 4 4 5 5 5 5 5 5 6 6 6 6 7 7 7 7 7 7 8 8 8 9 10 10 11 11 11
6 6 6 6 6 6 6 7 7 7 6 6 6 6 5 5 5 5 6 6 6 6 7 7 7 7 7 7 7 8 8 8 8 8 9 10 10 11 11 11 12 12 12
7 7 7 7 7 7 7 7 7 7 7 7 7 7 7 7 7 7 8 7 8 9 9 8 8 8 9 8 8 9 10 10 10 10 11 12 12 13 13 13 14 14 14
7 7 7 7 8 8 8 8 8 9 9 9 8 9 9 8 8 9 9 9 10 10 10 10 10 10 11 11 11 11 12 13 13 13 14 14 15 15 16 16 16 16 16
7 7 8 8 8 9 9 9 10 10 11 11 11 10 11 11 11 11 11 11 11 12 12 12 12 12 13 13 14 14 15 15 16 16 17 18 18 18 19 19 20 20 19
6 7 7 8 7 8 9 10 11 12 12 12 13 13 13 13 14 14 13 14 14 14 14 15 15 15 15 16 16 17 18 18 19 19 20 21 21 21 21 22 22 23 22
7 7 7 8 9 10 10 11 12 13 14 14 15 15 16 16 16 16 15 15 16 16 17 17 18 19 18 18 19 20 20 21 21 22 23 24 24 24 24 24 24 24 25
7 8 9 9 10 12 12 12 13 13 14 16 16 17 18 18 18 18 18 19 19 19 19 20 21 21 22 22 22 23 23 23 24 24 25 26 26 26 26 26 26 27 27
8 10 10 11 11 12 13 13 14 14 15 15 16 17 18 19 19 20 21 21 22 23 22 23 24 24 24 25 24 25 26 26 27 27 27 27 27 28 28 28 29 29 30
10 10 10 11 12 12 13 14 14 15 16 16 17 18 19 20 21 22 22 23 24 25 25 25 25 25 26 26 26 27 28 29 29 30 30 29 29 30 30 30 31 32 32
11 12 12 12 12 13 14 15 16 16 17 17 17 18 19 21 22 23 23 24 25 26 26 26 26 27 27 28 28 28 29 30 31 31 31 31 32 32 32 32 32 33 33
13 13 14 14 14 14 15 16 17 17 18 18 19 20 21 22 23 24 24 25 25 26 26 27 27 27 28 29 30 30 31 32 32 32 32 33 33 34 34 33 34 35 35
14 14 15 15 15 15 16 16 17 18 19 20 21 22 23 24 24 24 25 26 27 28 29 29 29 29 29 29 29 30 31 31 31 31 31 32 33 34 34 34 35 36 36
15 16 16 16 16 16 17 17 18 19 20 22 23 24 25 25 26 26 26 28 29 29 30 30 30 30 30 30 30 31 31 31 32 33 33 33 34 34 35 35 36 37 38
17 17 18 17 18 18 19 19 20 21 22 23 24 25 25 26 27 27 27 28 29 29 29 30 30 30 30 30 31 31 32 32 33 33 34 35 35 35 36 36 37 37 37
19 19 19 19 20 20 21 21 21 22 23 24 25 26 27 27 28 28 29 29 30 30 31 31 31 31 31 31 31 31 32 32 32 32 33 34 36 37 38 38 38 39 39
20 20 21 21 21 22 22 22 23 24 25 26 26 27 28 28 28 29 30 31 31 31 32 32 32 31 32 32 32 33 33 34 35 35 35 36 37 39 40 40 41 41 40
21 21 22 22 23 23 24 24 25 25 26 26 27 28 28 28 29 30 31 31 32 32 32 32 31 32 32 33 34 34 35 35 36 36 37 37 38 39 39 41 41 41 41
22 22 23 23 24 24 25 26 27 27 27 27 28 28 29 29 30 31 31 32 32 32 32 32 32 33 34 34 34 34 35 35 36 37 37 37 38 38 39 40 40 40 40

GEFSMA_500_meanwind_174.txt.gz
Wind_Speed
2 2 2 2 2 1 1 1 1 1 0 0 0 1 1 1 1 1 1 1 1 1 1 1 0 1 1 1 2 2 3 3 3 4 4 5 4 4 5 5 4 4 4
2 2 2 2 2 1 1 1 1 1 1 1 1 1 1 1 1 1 2 1 1 1 2 2 2 2 2 2 3 3 3 4 4 4 5 5 6 6 6 6 6 6 6
2 3 2 3 2 2 2 1 1 1 1 2 2 1 1 2 2 2 2 1 1 2 2 3 3 3 3 3 3 3 3 4 4 4 5 6 6 7 7 7 7 7 7
2 2 3 3 3 3 2 2 2 1 2 2 2 2 2 2 2 2 2 2 2 2 3 3 4 4 4 4 4 4 4 5 5 5 6 6 6 7 8 8 8 8 9
1 2 2 3 3 3 3 3 3 3 2 2 2 2 2 2 3 2 2 3 3 3 3 4 4 5 5 4 4 5 5 5 5 6 6 6 7 7 8 8 9 10 10
2 2 3 3 3 3 3 3 3 4 3 3 3 3 3 3 3 3 3 4 4 4 4 4 4 5 5 5 6 6 6 6 6 6 7 7 7 8 9 9 10 11 11
2 3 3 4 3 3 4 4 4 5 4 4 4 4 4 4 4 4 5 5 6 6 6 6 6 6 6 7 7 7 7 7 7 8 8 8 9 9 10 11 11 12 13
2 3 3 4 4 4 4 4 4 5 6 6 6 5 5 5 5 5 6 6 7 8 8 8 8 8 8 8 9 9 8 8 9 9 9 10 10 10 11 12 12 13 14
3 3 4 4 4 4 5 5 5 5 5 6 7 7 6 7 7 7 7 7 8 8 9 10 10 10 10 10 10 11 10 10 11 11 11 11 11 12 13 14 14 15 15
4 4 4 5 5 5 6 6 6 6 6 6 7 8 8 8 9 9 9 9 10 10 10 10 11 12 12 12 12 12 12 12 13 13 14 14 14 14 15 15 16 17 17
3 3 4 5 6 6 6 7 8 7 8 9 9 9 9 9 9 9 10 11 11 12 12 12 13 14 14 14 14 14 14 14 15 16 17 17 17 17 17 17 18 19 19
3 3 3 5 6 6 6 6 7 8 9 10 10 11 11 11 11 11 12 12 13 13 13 14 14 15 15 16 16 16 17 17 18 19 19 20 20 20 21 21 21 21 22
4 4 4 5 6 6 7 7 8 8 9 10 11 12 13 13 13 14 13 14 14 15 15 16 16 16 17 18 18 19 19 20 21 21 21 22 22 23 23 24 25 25 25
5 4 4 6 7 7 7 8 9 10 11 11 11 12 13 14 15 15 16 16 16 17 17 18 19 19 19 20 21 21 22 22 22 23 23 24 24 24 25 26 26 27 28
5 5 5 6 7 8 8 9 10 10 11 12 13 13 13 14 15 16 17 17 17 17 18 19 19 20 21 21 22 23 24 25 25 26 27 27 27 27 27 27 28 29 29
6 6 6 6 7 8 8 9 10 10 11 12 13 14 15 16 16 17 17 17 18 19 19 20 20 21 22 22 24 24 25 26 27 27 28 28 29 29 29 30 31 31 32
7 7 7 8 8 9 9 10 11 12 13 14 15 16 17 17 17 17 18 19 19 20 21 22 22 23 23 24 25 25 26 27 28 28 29 30 30 31 32 33 33 33 34
9 9 9 9 10 11 11 11 12 12 14 14 15 16 17 17 18 19 19 20 21 22 22 23 24 25 25 26 26 27 27 28 29 29 30 31 32 33 33 34 35 35 35
11 11 11 10 11 12 13 12 13 14 15 15 16 17 18 19 19 20 20 21 23 24 24 24 25 25 26 27 27 28 29 29 30 30 31 32 33 34 35 35 36 36 37
11 12 11 12 12 13 13 14 15 15 15 16 16 17 18 19 21 21 22 23 24 25 25 26 26 27 27 28 29 30 31 31 32 32 32 33 34 35 35 36 36 36 37
13 13 13 13 14 14 15 16 16 16 17 17 17 18 19 20 22 23 24 24 25 25 25 26 27 28 29 29 30 31 31 32 32 32 33 34 34 35 36 36 36 36 37
14 14 14 15 15 15 16 17 18 18 19 18 18 19 20 21 22 23 24 24 25 26 27 28 29 29 29 31 31 31 32 32 33 33 34 34 35 36 36 37 37 37 38
15 16 16 16 17 17 17 18 18 19 19 20 20 21 22 23 24 25 25 25 25 27 28 28 29 29 30 30 31 32 32 33 33 33 34 35 36 37 37 37 39 40 40
16 17 17 17 17 17 17 17 18 18 19 20 21 22 23 24 24 25 25 26 26 27 27 27 28 29 29 30 31 32 34 34 35 35 35 36 37 38 39 39 39 40 41
18 18 18 18 18 18 19 19 20 20 21 22 23 24 24 25 25 25 26 26 26 27 27 28 29 30 30 31 32 33 33 34 35 35 36 36 37 38 39 39 39 40 40
19 19 19 19 19 19 20 21 21 22 23 23 24 25 25 25 25 26 26 26 27 27 28 29 29 29 30 31 32 33 34 35 35 36 36 37 37 38 38 38 39 39 39

GEFSMA_500_meanwind_180.txt.gz
Wind_Speed
1 1 1 1 2 1 1 1 1 0 1 1 1 1 2 2 2 1 1 1 1 1 1 1 2 2 2 2 2 3 3 3 3 4 4 3 3 4 4 4 4 5 5
1 1 1 2 2 1 1 1 1 1 1 1 1 1 2 2 1 2 2 2 2 2 2 2 2 2 2 3 3 3 4 4 4 5 5 4 4 5 5 5 6 6 6
2 1 2 2 2 2 2 1 1 1 1 1 1 2 2 2 2 2 2 2 2 2 3 3 3 3 4 4 4 5 5 5 5 5 5 5 6 6 6 6 7 7 8
2 2 2 2 3 3 3 2 2 1 1 2 2 2 2 3 3 3 3 3 3 3 4 4 4 5 5 5 5 6 6 6 6 6 6 6 7 7 8 8 8 9 9
2 3 3 3 3 3 4 3 3 3 3 2 2 3 3 3 3 4 4 4 4 4 4 5 6 6 6 6 6 6 7 7 7 7 7 8 8 9 9 10 10 11 11
2 3 4 4 4 4 4 4 4 4 4 4 4 4 4 4 4 4 5 5 5 5 5 6 7 7 7 7 7 7 8 8 8 9 9 10 10 10 10 11 11 12 13
2 3 3 4 4 4 4 4 5 5 5 5 5 5 5 6 5 5 5 6 6 7 7 8 8 9 9 9 9 9 9 10 10 10 11 11 12 12 12 12 12 13 14
2 3 4 4 4 4 5 5 5 6 6 6 6 7 7 7 6 7 7 7 8 9 9 10 10 11 11 11 11 11 11 12 12 12 12 13 13 14 14 14 14 15 15
3 3 4 4 5 5 5 5 6 6 7 7 8 8 8 8 8 9 9 9 9 10 11 12 12 12 13 13 13 13 14 13 14 14 15 15 15 16 16 16 16 16 17
4 4 4 5 5 5 6 6 6 7 7 8 9 9 9 10 10 10 11 11 11 12 12 13 13 14 14 14 14 15 15 16 16 17 17 17 18 18 18 18 18 19 19
3 4 4 4 5 6 6 6 6 7 8 9 9 9 10 10 11 12 12 12 13 14 14 15 15 15 15 16 16 17 17 18 18 18 19 20 20 21 21 21 21 21 21
4 5 4 5 5 6 6 7 7 8 9 9 10 11 11 12 12 13 13 14 15 15 15 16 17 17 17 17 18 18 19 20 20 21 21 21 22 23 24 24 24 24 24
5 5 5 6 6 7 7 8 8 9 10 11 11 12 13 14 14 14 15 16 16 17 17 18 18 19 19 19 20 20 20 21 21 22 22 23 23 23 25 26 27 27 27
6 6 7 7 8 8 8 9 10 11 12 12 13 13 14 14 15 16 17 17 18 18 19 19 19 19 20 21 21 22 22 22 23 24 24 25 26 26 26 27 29 29 29
8 7 7 7 8 8 9 10 11 12 13 13 14 14 15 15 16 16 17 17 18 18 19 20 20 21 21 22 23 23 24 24 25 25 25 26 27 28 29 29 30 31 31
8 8 8 8 8 9 10 11 12 12 13 14 14 15 16 17 17 18 19 19 19 20 20 21 22 22 23 23 23 24 25 26 27 27 28 29 30 30 31 31 32 33 33
10 9 9 9 10 11 11 12 13 13 14 15 15 16 18 18 19 20 20 20 21 21 21 22 24 25 25 25 26 26 27 28 28 29 30 30 31 31 32 32 33 33 34
11 11 10 10 11 12 13 13 14 15 15 16 17 17 18 19 20 21 22 22 23 23 23 24 26 27 27 28 28 29 30 30 30 32 32 33 33 33 33 33 34 34 35
12 12 12 12 12 13 14 14 15 15 16 17 17 19 20 20 21 23 23 24 24 25 26 27 27 28 28 29 30 31 31 32 32 33 33 34 35 35 35 35 36 36 38
13 13 13 13 14 14 15 16 16 17 17 18 19 20 20 21 22 23 24 25 26 27 28 28 28 29 29 30 31 31 32 33 33 33 34 35 35 35 36 36 37 37 38
14 14 14 15 15 15 15 15 16 17 18 18 19 20 21 22 23 23 24 26 27 28 28 29 28 28 29 29 30 30 31 31 32 33 34 35 35 35 35 36 37 38 39
15 15 15 15 15 15 15 16 17 18 19 20 21 21 22 23 23 24 24 24 25 25 26 26 26 27 28 29 29 30 31 32 32 33 34 35 35 36 37 37 38 38 39
16 16 16 16 16 16 16 17 18 19 20 21 21 22 23 23 23 24 24 24 25 25 25 25 27 28 29 29 30 31 32 33 34 34 35 36 37 37 37 38 39 40 40
17 17 17 17 17 17 18 18 18 20 21 22 23 23 24 24 24 25 24 25 26 26 26 27 28 29 30 31 31 32 33 33 34 35 35 36 37 38 38 39 39 40 40
18 18 18 18 18 19 19 19 20 20 21 22 23 24 24 25 25 26 26 26 27 27 28 28 29 30 30 31 31 32 33 34 35 35 36 37 37 37 37 37 38 38 39
20 20 20 19 20 20 20 20 21 22 23 24 25 25 26 26 26 26 26 27 27 28 28 29 30 30 30 31 32 33 34 34 35 36 36 36 36 36 36 36 36 36 36

GEFSMA_500_meanwind_186.txt.gz
Wind_Speed
4 4 4 3 2 2 2 2 3 2 2 2 2 2 2 1 1 1 1 1 1 0 0 0 1 1 2 2 2 2 3 3 3 3 4 4 4 4 4 3 4 4 5
4 4 4 4 3 2 2 2 3 2 2 1 2 1 1 1 1 1 1 1 1 1 1 1 2 2 3 3 3 3 4 4 4 4 4 4 5 5 5 5 5 6 6
4 4 4 4 3 3 2 3 3 3 2 2 2 2 2 2 2 2 2 2 2 2 2 2 3 3 3 4 4 5 5 5 5 5 5 5 5 6 6 6 7 7 7
3 3 4 3 3 3 3 4 4 3 3 3 3 3 3 3 3 3 3 3 3 4 4 4 4 4 4 5 5 6 6 7 7 7 7 7 7 7 8 8 9 9 9
2 3 3 3 3 3 4 4 4 4 4 4 3 3 3 4 4 4 4 5 5 5 5 5 6 6 6 6 6 7 7 8 8 8 8 8 9 9 10 10 10 11 11
2 3 3 3 4 4 4 4 4 5 5 5 5 4 5 5 5 6 6 6 6 7 7 7 7 7 7 8 8 8 8 9 9 9 10 10 11 11 12 12 12 12 13
2 3 4 4 4 4 5 5 5 5 5 6 6 6 6 6 7 7 7 7 8 8 9 9 9 9 10 10 10 10 11 10 10 11 11 12 12 13 13 13 13 14 14
2 3 4 5 5 5 5 6 6 6 6 7 7 8 8 8 8 8 9 9 9 10 10 10 10 11 11 11 12 12 12 12 12 13 13 13 14 14 14 14 15 15 16
3 3 4 4 5 5 5 6 7 7 7 7 8 8 9 9 10 10 11 11 11 12 12 12 12 12 12 13 13 14 14 13 14 14 14 15 16 16 16 16 17 17 17
3 3 3 4 4 5 6 6 7 7 8 8 8 9 9 10 11 11 12 12 12 13 13 13 13 14 14 14 15 15 15 16 15 16 16 17 17 17 18 18 18 19 20
4 4 5 5 5 5 6 6 7 7 8 8 9 9 10 11 11 12 13 14 14 15 15 14 15 16 16 17 17 17 17 18 18 18 19 19 19 19 20 20 20 21 21
6 6 6 6 6 6 6 7 7 7 8 9 10 11 12 12 13 13 14 15 15 16 16 16 16 17 17 18 18 19 19 19 20 20 21 20 20 21 21 22 22 23 24
8 7 6 6 7 8 8 8 7 8 9 10 11 12 13 14 15 15 16 16 16 17 17 18 18 18 19 19 20 21 21 21 21 21 22 23 23 23 23 24 25 25 26
8 8 7 7 8 8 8 8 9 10 10 11 12 12 13 14 16 16 17 17 17 18 19 19 20 20 20 21 22 22 22 23 23 23 23 23 25 26 26 26 27 27 28
9 9 9 8 8 8 9 10 11 11 12 12 13 14 15 15 16 16 17 18 18 19 20 21 21 21 22 23 23 23 23 24 25 25 25 26 26 27 27 28 29 30 30
10 10 9 9 8 9 11 11 12 12 12 13 14 15 16 16 17 18 19 19 20 20 21 22 23 23 24 23 23 24 25 25 26 26 27 28 28 28 28 28 29 29 30
11 10 10 10 10 10 11 12 13 13 14 14 15 16 16 18 18 19 20 20 21 22 22 22 23 24 25 25 25 26 27 27 27 28 29 30 30 30 31 30 31 32 32
11 11 11 11 11 11 12 13 13 13 14 15 15 16 17 18 19 20 21 21 22 22 22 23 24 25 26 27 27 28 28 28 29 30 31 31 32 32 33 33 33 34 34
12 12 12 12 12 12 12 13 14 14 14 15 16 16 17 18 19 20 21 22 22 23 23 25 26 26 27 28 28 28 28 28 30 31 31 31 32 32 33 33 34 34 35
13 13 13 13 13 13 13 14 15 15 15 16 16 17 17 18 19 20 21 22 23 24 24 25 26 26 27 27 27 27 27 28 29 30 31 31 32 32 33 34 34 35 36
14 14 13 13 13 14 14 14 15 15 16 17 18 18 19 20 21 22 23 23 24 24 24 25 25 26 26 26 26 27 28 29 30 31 32 32 33 33 34 35 35 36 37
16 15 15 15 15 14 14 15 16 16 16 17 18 19 19 20 22 23 23 24 24 24 24 25 25 25 26 26 27 28 29 30 30 30 31 33 34 34 35 35 35 36 37
17 17 17 16 16 16 16 17 17 17 18 18 19 20 21 21 22 23 23 24 24 24 25 26 26 27 28 28 29 29 30 31 31 31 32 32 33 33 34 35 36 36 37
18 17 17 17 17 17 18 18 18 18 19 20 20 21 21 22 23 23 23 24 24 25 26 27 28 28 28 29 29 29 30 31 31 32 32 32 33 33 34 35 35 35 35
19 19 18 18 18 18 19 19 19 20 20 21 21 22 22 23 23 23 24 25 25 25 26 27 28 28 28 28 28 28 29 30 31 31 32 32 33 34 34 34 34 33 33
21 20 20 19 20 20 20 20 21 22 22 23 23 23 24 24 24 24 24 25 25 26 28 28 28 27 27 28 28 29 30 30 30 31 31 32 32 33 33 33 32 32 32

GEFSMA_500_meanwind_192.txt.gz
Wind_Speed
1 2 1 1 1 1 1 0 1 1 1 0 0 0 0 0 0 0 1 1 1 1 1 2 2 2 2 3 3 3 3 3 3 3 4 4 4 4 4 4 4 5 5
1 1 1 1 1 1 1 2 1 1 1 0 0 1 1 1 1 1 1 1 1 2 2 3 3 3 3 3 4 4 4 4 4 4 4 5 5 5 5 6 6 6 6
1 1 1 2 2 2 2 2 1 1 1 2 2 2 2 2 2 2 2 2 3 3 3 4 4 4 4 4 5 5 5 5 5 6 6 6 6 6 6 7 8 8 8
1 1 1 2 2 2 2 2 2 3 3 3 3 3 3 3 3 3 4 4 5 5 5 5 5 5 6 6 6 6 7 7 7 7 7 7 7 7 7 8 9 10 10
1 1 2 2 2 3 3 3 3 3 4 4 4 4 4 5 5 4 5 5 6 6 6 7 6 6 7 7 8 8 8 8 8 8 8 8 9 9 9 10 11 11 12
2 2 2 2 3 4 4 4 4 4 4 4 5 5 6 6 6 6 6 6 7 7 8 8 8 8 9 9 9 10 10 10 10 10 10 10 11 11 11 11 12 13 13
3 2 3 3 4 4 5 5 5 5 5 6 6 7 7 7 7 7 7 8 8 8 8 9 9 10 11 11 11 11 11 11 11 11 11 11 12 12 12 13 13 14 14
3 3 3 4 4 5 5 6 7 7 7 7 8 8 8 9 9 9 9 9 10 10 10 10 11 12 13 13 13 12 12 12 13 13 13 13 13 13 13 14 15 15 15
4 4 4 4 5 5 6 6 7 8 8 8 9 9 8 9 9 10 10 11 11 11 12 12 13 13 14 14 14 15 15 15 15 15 15 16 16 16 16 17 17 17 17
5 5 5 5 6 6 6 6 7 8 8 9 9 10 10 10 10 11 11 12 13 13 14 14 14 15 15 15 15 16 16 17 17 17 18 18 18 18 19 19 19 19 20
7 7 6 6 6 6 7 7 7 8 8 9 9 9 10 10 11 11 12 12 13 14 14 15 15 15 16 16 17 17 18 18 18 19 19 19 20 20 21 21 21 21 22
8 8 7 7 7 7 7 8 8 8 8 9 9 10 10 11 12 12 13 14 14 15 16 16 16 17 18 17 18 19 19 20 20 20 20 21 22 22 22 23 23 23 24
9 9 8 8 8 8 8 9 9 10 10 10 11 11 12 12 13 13 14 15 15 16 16 16 18 18 19 19 19 20 21 21 22 22 23 23 24 24 24 24 24 24 25
11 11 10 9 9 9 9 10 10 10 11 11 11 12 12 13 14 14 15 16 16 17 18 19 19 19 20 20 20 21 21 22 23 23 23 24 25 25 25 26 26 26 26
12 12 11 9 9 9 10 10 11 11 11 12 13 13 13 14 15 16 16 17 17 17 18 20 20 21 21 21 21 21 22 23 23 24 24 25 25 26 26 26 27 28 28
14 12 12 12 11 11 10 11 11 12 12 13 13 14 14 15 16 17 17 18 18 19 19 20 21 22 22 22 23 23 23 23 23 24 25 25 26 26 27 28 28 29 29
14 14 14 14 12 11 11 11 12 12 12 13 13 14 15 16 17 17 18 18 19 19 20 21 22 22 23 24 24 24 24 24 24 25 25 26 26 27 28 29 30 31 31
15 15 14 14 13 13 12 13 13 13 13 14 15 15 16 16 17 18 19 19 19 20 21 21 22 23 24 24 25 25 24 25 26 27 27 27 28 29 29 30 31 31 32
16 15 15 16 15 14 14 14 13 14 14 15 16 17 17 17 18 19 19 20 20 20 21 23 23 24 24 25 25 25 25 26 26 27 28 28 29 30 30 31 31 31 32
16 16 16 17 17 16 15 15 15 15 16 17 17 17 17 18 19 20 20 21 21 22 22 23 23 24 25 26 26 26 27 27 27 28 28 28 29 31 31 32 32 32 32
16 17 17 18 17 16 16 16 16 17 18 18 18 18 18 19 20 20 21 22 23 23 23 24 24 25 25 25 26 27 27 27 28 28 28 29 30 31 32 32 33 33 33
18 18 19 19 19 18 17 18 18 18 18 19 19 19 20 21 21 21 22 23 23 24 24 24 25 25 25 26 26 27 28 28 28 29 29 29 30 30 31 31 32 32 33
19 19 20 20 20 19 19 19 19 19 20 20 20 20 21 22 22 23 23 24 24 24 25 25 26 26 26 26 27 27 28 29 30 30 30 30 30 30 31 31 32 32 32
20 20 20 21 21 21 20 20 20 20 21 22 22 22 22 23 24 24 24 24 25 25 26 26 27 27 27 27 28 28 29 30 30 30 30 31 31 31 31 32 32 32 32
21 21 21 21 22 22 21 21 21 22 22 23 23 23 24 24 24 24 25 26 26 27 27 27 28 28 29 29 29 30 30 31 31 31 31 31 32 32 32 31 31 32 32
23 23 23 23 23 23 22 23 23 23 23 24 24 24 24 25 25 26 27 28 28 28 28 28 28 29 30 30 30 31 31 31 30 30 31 31 31 31 31 31 30 31 31

GEFSMA_500_meanwind_198.txt.gz
Wind_Speed
3 3 2 2 2 1 1 2 2 2 1 2 2 2 1 1 1 0 0 0 1 0 0 1 1 1 2 2 2 2 2 3 3 4 4 5 5 5 5 6 6 7 7
2 2 2 2 1 1 1 1 1 1 1 1 1 2 2 1 1 1 1 1 1 1 1 2 2 3 3 3 3 4 4 4 4 5 5 5 6 6 6 7 7 8 8
2 2 1 1 1 1 1 1 1 1 1 2 2 2 2 1 2 2 2 2 2 2 2 3 3 4 4 5 5 5 5 5 5 6 7 6 6 7 8 8 8 9 9
1 1 1 1 1 0 0 0 1 1 2 2 2 3 3 3 3 3 4 4 4 5 5 5 5 5 5 6 6 6 7 7 8 8 8 8 8 8 9 10 10 10 11
2 1 1 1 1 0 1 1 1 1 2 2 3 3 3 4 4 5 5 6 6 6 7 7 6 7 7 7 8 8 8 9 10 10 10 10 10 11 11 11 12 12 13
2 1 1 1 0 1 1 2 2 2 2 3 4 4 5 6 7 7 7 7 7 7 8 8 8 9 8 8 9 9 10 10 11 11 12 12 12 12 13 13 13 14 14
2 1 1 1 1 1 2 2 3 3 3 4 5 6 6 7 8 8 8 8 8 8 9 10 11 11 11 11 11 11 12 12 12 13 13 14 14 14 14 15 15 15 15
3 2 2 1 1 2 2 3 4 4 5 5 6 6 7 7 7 8 9 9 9 9 10 10 11 11 12 12 13 13 13 13 14 14 15 16 16 16 16 16 16 17 17
3 2 2 2 2 2 3 3 3 4 4 5 6 6 6 7 7 8 9 9 10 11 11 11 11 12 13 13 14 14 14 14 15 16 17 17 17 17 17 17 18 18 19
4 3 3 2 2 3 4 4 4 4 5 5 6 6 6 6 7 8 8 10 11 12 12 13 13 13 14 15 16 16 16 17 17 17 18 19 19 19 19 19 20 20 20
6 5 4 3 3 4 4 5 5 5 5 6 6 6 7 7 8 8 9 10 11 12 12 13 14 15 16 17 18 18 19 19 19 18 19 20 20 21 21 21 22 21 22
7 6 5 4 4 5 6 6 7 7 7 7 7 8 8 8 9 9 10 10 11 12 13 14 15 16 17 18 18 18 18 20 20 20 20 21 21 22 22 23 24 24 23
9 7 6 6 5 5 6 7 8 8 8 8 8 8 9 9 10 10 10 11 12 14 14 15 16 17 18 18 19 18 19 20 20 20 21 21 21 22 23 23 25 26 26
10 9 7 7 6 6 6 7 7 7 8 8 8 9 9 10 11 11 11 12 13 14 15 16 16 18 18 20 20 20 20 21 21 21 22 22 22 22 23 24 24 25 26
10 9 9 8 8 8 8 7 7 8 8 9 9 10 11 11 12 12 12 13 14 15 16 17 18 18 19 20 20 20 20 21 21 22 23 23 23 23 24 25 25 26 26
11 10 9 9 9 9 9 9 9 9 9 10 11 12 12 12 13 13 14 14 16 17 17 18 19 20 20 20 21 21 21 21 22 22 23 24 24 24 24 25 26 26 26
12 11 10 10 9 9 10 10 10 10 11 11 12 12 13 13 14 14 15 16 16 17 17 18 19 19 20 21 21 21 22 23 23 24 24 24 24 25 25 26 27 27 27
12 11 11 10 10 11 11 11 11 11 12 12 13 13 14 14 14 15 16 16 17 18 18 18 18 19 20 20 21 21 22 23 24 24 24 24 25 26 26 27 28 28 28
13 12 12 11 12 12 13 12 12 12 12 12 13 14 14 15 16 16 17 17 18 18 19 19 20 20 20 21 22 22 23 23 23 23 24 25 26 26 27 28 28 29 30
14 14 14 13 13 13 14 14 14 13 13 13 14 14 15 15 16 17 17 18 18 19 20 20 21 21 21 22 23 23 23 24 25 25 25 26 26 26 27 28 28 29 29
15 15 14 13 13 14 15 15 14 14 14 15 15 15 16 16 17 17 18 18 19 20 21 21 21 22 22 23 23 24 24 25 25 26 26 27 27 27 28 28 28 29 30
16 15 15 15 15 15 16 16 15 15 16 16 17 17 18 18 18 18 18 19 20 21 22 22 23 23 24 24 24 25 25 26 26 27 27 28 28 29 29 29 29 30 30
17 16 16 16 17 17 17 17 16 16 17 17 18 19 19 19 19 19 20 21 22 22 23 23 24 25 25 25 26 26 27 27 27 28 28 29 30 30 31 31 30 30 31
19 19 18 18 18 18 17 17 17 18 18 18 19 19 20 20 21 21 22 23 23 23 24 25 26 26 26 26 27 27 28 28 29 29 30 30 31 31 32 31 31 31 32
21 20 20 20 19 19 19 18 19 19 20 20 20 21 21 21 22 22 23 24 24 25 25 26 26 27 27 27 27 28 28 29 29 30 31 31 31 31 31 31 31 31 32
22 22 21 21 20 20 20 20 20 20 21 21 22 22 22 22 23 23 24 24 25 26 27 27 27 27 28 28 28 29 29 29 30 30 30 31 31 30 30 30 30 31 31

GEFSMA_500_meanwind_204.txt.gz
Wind_Speed
3 3 3 3 3 3 3 2 2 2 1 1 1 1 0 0 0 0 0 0 0 1 1 1 2 2 3 3 4 4 4 4 5 5 5 5 5 5 5 6 6 6 7
3 3 2 2 3 3 3 2 2 2 1 1 1 1 1 1 0 1 1 2 2 3 3 3 3 4 4 5 5 5 5 6 6 6 6 6 7 7 7 7 8 8 8
2 2 2 1 2 3 3 2 2 2 1 1 2 2 2 1 1 2 3 3 4 4 4 4 5 5 5 5 6 6 7 7 8 8 8 8 8 8 8 9 9 9 10
2 1 1 2 2 3 3 3 2 2 2 2 2 2 3 3 3 4 4 5 5 5 5 5 6 6 7 7 7 8 9 9 10 10 10 9 9 10 10 11 11 11 11
1 0 1 1 2 2 3 3 3 3 3 3 3 4 4 4 5 5 5 6 6 7 7 7 7 8 8 9 9 10 11 11 11 12 12 11 11 11 12 13 13 13 13
2 1 0 1 1 2 3 3 3 3 4 4 4 4 5 6 6 7 7 8 8 8 8 9 9 10 10 10 11 12 13 13 13 14 14 14 14 14 14 15 15 15 15
2 2 1 1 2 2 2 3 4 4 5 5 5 5 6 7 7 8 8 9 9 9 10 10 11 11 11 12 12 12 13 14 15 15 15 16 16 16 17 17 17 17 16
4 3 2 2 2 2 3 3 4 5 5 5 6 6 7 7 7 8 9 9 9 11 11 12 12 12 13 13 14 14 15 15 15 15 16 17 17 17 18 19 19 18 18
5 4 3 3 3 3 4 4 5 5 6 6 6 7 7 8 8 8 9 9 10 11 12 12 12 13 15 15 15 16 16 16 15 16 17 17 18 19 20 20 20 21 20
6 5 5 5 4 5 5 5 5 5 6 7 7 8 8 8 9 9 9 10 10 11 12 12 13 14 16 16 17 18 17 17 17 18 18 18 19 20 20 20 20 21 21
7 6 5 5 6 6 6 6 6 6 7 8 9 9 9 10 10 10 11 11 11 12 13 13 14 16 16 17 17 18 18 18 19 19 19 19 20 20 20 21 21 22 22
9 7 7 6 6 7 7 7 8 8 9 9 10 11 11 11 11 11 12 12 12 13 14 14 15 15 16 17 17 17 18 19 20 20 19 20 20 21 22 22 23 23 23
10 9 8 8 8 8 7 7 8 9 9 9 10 10 11 12 12 12 13 13 14 14 15 15 15 16 17 18 18 19 20 21 21 21 21 22 22 22 23 23 23 24 25
10 10 9 9 8 8 8 8 9 10 9 9 10 10 11 11 12 13 14 14 14 15 16 16 17 18 18 19 19 20 20 21 21 22 22 23 23 24 25 25 25 25 26
12 11 11 10 10 9 10 10 10 11 11 11 11 11 12 12 13 14 14 15 15 15 16 17 18 18 18 19 19 20 20 21 22 21 22 23 24 24 24 25 26 26 27
13 12 12 12 11 10 11 11 11 11 11 11 12 12 12 13 14 15 15 16 16 17 17 18 18 19 19 20 20 21 21 22 22 22 23 23 24 24 25 25 25 26 27
14 14 13 12 12 11 11 11 12 12 12 13 13 13 14 14 15 16 16 17 17 18 18 19 19 19 19 20 20 21 22 22 22 23 24 24 23 24 24 25 26 26 27
16 15 14 14 13 12 12 13 13 13 13 13 14 14 15 15 16 17 17 18 18 18 19 19 20 20 20 20 21 22 22 22 23 24 24 25 25 25 25 26 27 27 27
17 16 15 14 13 13 13 14 14 14 14 14 14 15 15 16 16 17 17 17 18 19 19 20 20 21 21 22 22 23 23 23 24 24 25 25 26 26 26 27 27 28 28
18 17 15 14 14 14 14 15 15 15 15 15 15 16 16 16 16 17 17 18 19 19 20 20 21 21 22 22 23 24 24 25 26 26 26 27 27 28 28 28 29 29 29
19 17 16 15 15 15 15 15 16 16 16 16 16 16 16 17 17 18 18 19 20 20 21 21 22 23 23 23 24 25 25 26 26 27 27 27 28 29 30 30 30 30 31
19 18 16 16 16 16 16 16 16 16 17 17 17 17 17 18 18 19 19 20 21 22 22 22 24 25 25 25 25 25 26 27 27 27 28 29 29 30 31 31 32 32 32
19 19 18 18 18 18 18 18 18 18 18 18 18 18 18 19 20 20 21 22 23 23 23 24 24 25 26 26 26 27 27 27 28 28 29 30 31 31 31 32 32 32 32
21 20 20 20 20 20 20 20 20 19 19 19 19 19 20 20 21 22 22 23 24 24 25 25 26 26 27 27 27 28 28 29 30 30 30 30 31 31 31 31 31 32 32
23 22 22 22 22 22 22 22 21 21 20 20 20 20 21 21 22 23 23 24 25 25 26 26 27 27 28 28 28 29 29 29 30 30 30 30 31 31 31 31 32 32 31
24 24 24 24 23 23 23 22 22 22 21 21 21 22 22 23 23 24 24 24 25 26 26 27 27 27 28 28 29 29 30 30 30 31 31 31 31 31 31 31 31 31 32

GEFSMA_500_meanwind_210.txt.gz
Wind_Speed
4 4 4 3 3 4 4 4 4 3 3 2 2 2 2 2 2 2 2 3 3 3 3 3 3 4 4 4 4 4 4 4 4 5 5 5 5 5 5 5 6 6 6
4 4 3 2 3 3 3 4 4 3 3 2 2 2 2 2 2 3 3 3 3 4 4 4 4 5 5 5 5 5 5 5 5 6 6 7 7 6 6 7 7 7 8
3 3 2 2 2 3 3 3 3 3 3 2 2 3 3 3 3 3 4 4 4 4 5 5 5 6 6 6 7 7 7 8 8 8 8 9 9 8 8 9 9 9 10
1 1 1 1 3 3 3 3 3 3 3 3 3 3 3 4 4 4 4 5 5 6 6 7 7 7 7 8 8 9 9 10 10 10 10 11 11 11 11 11 11 12 12
2 1 1 1 2 3 3 3 3 3 3 3 4 4 5 5 4 5 5 6 6 7 7 7 8 9 9 9 10 11 11 11 12 12 12 12 13 13 13 14 14 14 14
2 1 0 0 1 2 3 3 3 3 4 4 5 5 6 5 6 6 7 8 8 8 8 9 9 10 10 11 11 12 12 13 13 14 13 13 14 14 14 15 15 16 16
3 3 2 1 0 2 2 3 3 4 4 4 5 6 6 6 7 7 8 9 9 9 10 11 11 11 12 12 13 13 13 13 14 14 14 14 14 15 15 16 17 17 17
4 4 3 2 1 1 2 3 3 4 5 5 6 6 7 7 7 8 9 9 10 11 11 12 12 13 13 13 14 15 15 15 15 15 14 14 15 15 15 16 17 17 17
4 4 3 3 2 2 3 4 4 5 5 6 6 7 8 8 9 9 9 10 10 10 11 12 13 14 14 15 15 15 15 16 15 15 15 16 16 17 17 18 18 18 19
6 4 4 4 4 4 4 4 5 6 6 7 7 8 9 10 10 11 11 11 11 12 12 13 13 14 15 16 16 16 16 16 16 16 16 17 17 18 18 19 19 20 20
7 6 6 6 5 5 5 5 6 7 7 8 8 9 10 10 11 11 12 13 13 13 13 13 14 15 15 16 17 17 18 17 17 17 18 19 19 19 19 19 20 20 20
9 8 7 7 6 6 6 6 7 8 8 9 9 10 10 11 11 12 13 14 14 15 15 15 15 16 16 16 17 18 18 19 19 19 20 20 20 21 20 20 21 21 21
10 9 8 8 7 7 7 7 8 8 9 10 10 10 11 11 12 12 13 13 14 15 15 15 16 16 17 17 17 17 18 19 19 20 20 20 20 21 22 22 22 22 23
11 11 9 9 9 9 9 9 9 9 10 10 11 11 12 12 13 13 13 13 14 14 15 16 16 17 17 18 18 19 19 20 20 20 20 21 21 21 22 23 23 23 24
13 11 11 11 10 11 11 11 11 11 11 11 12 12 12 13 13 13 14 14 14 15 16 17 18 18 18 19 19 19 19 20 20 20 21 21 22 22 22 23 23 23 24
14 13 13 12 12 13 12 12 11 12 12 12 12 13 13 14 14 14 15 15 15 16 16 18 18 19 20 20 19 20 20 21 21 21 22 22 22 23 23 24 24 25 26
15 14 14 14 14 14 13 13 13 13 13 13 13 14 14 14 15 15 16 17 17 17 18 18 19 19 20 20 20 21 21 21 22 22 23 22 22 23 24 25 26 26 27
15 15 15 15 15 14 13 14 14 14 14 14 15 15 15 15 15 16 17 18 18 18 19 19 19 20 20 21 21 21 22 22 23 24 24 24 24 24 25 26 26 27 27
15 16 16 16 15 14 14 14 14 15 15 15 15 15 16 16 16 17 17 18 18 18 19 19 20 21 21 22 22 22 23 24 24 25 25 25 26 26 27 27 27 28 28
17 17 17 17 16 15 15 15 15 15 15 16 16 16 16 17 17 18 18 18 18 19 20 20 21 22 22 23 23 24 25 25 26 26 26 26 27 27 28 28 29 30 30
17 17 18 18 17 16 16 16 15 16 16 16 16 17 17 17 18 18 19 19 20 20 21 22 23 23 24 24 25 25 26 26 27 27 27 27 28 28 29 29 30 31 31
19 19 19 19 19 18 17 17 17 17 17 17 17 17 17 17 18 20 20 21 21 22 22 23 24 24 24 25 26 26 26 26 27 27 28 28 28 28 29 29 30 31 31
20 21 20 20 20 20 19 19 19 19 19 18 18 19 19 19 20 21 21 22 22 23 23 24 24 24 25 26 26 27 27 27 27 28 28 29 29 29 30 30 31 31 31
22 22 21 21 21 21 21 21 21 21 21 20 20 21 21 21 22 22 23 23 24 24 24 25 25 25 26 26 26 27 27 28 28 28 29 29 30 31 31 31 31 31 31
23 23 23 23 23 23 23 23 22 22 22 22 22 22 22 22 23 23 24 24 25 25 26 26 26 26 26 27 27 28 28 28 29 29 30 31 31 31 31 31 31 31 31
24 24 25 25 24 23 24 24 23 23 22 23 23 22 23 23 24 24 24 25 25 25 26 26 27 27 27 28 28 28 29 29 29 29 30 31 31 31 31 31 30 31 31

GEFSMA_500_meanwind_216.txt.gz
Wind_Speed
3 3 3 2 2 2 2 2 3 2 2 1 1 1 1 1 1 1 1 1 1 2 2 2 2 3 3 4 4 4 4 4 5 5 6 6 6 6 6 6 6 6 7
2 2 2 1 1 2 2 2 2 2 1 1 1 0 1 1 1 1 2 2 2 3 3 3 4 4 4 5 5 5 6 6 7 7 7 7 7 7 8 8 8 8 9
1 1 1 0 1 1 2 2 2 2 2 2 2 2 2 2 3 3 3 3 3 4 4 4 5 5 6 6 7 7 8 8 8 8 8 8 8 9 9 9 10 11 11
1 1 1 1 0 0 0 1 1 1 2 2 3 3 3 3 3 4 4 4 4 5 5 5 6 6 7 8 8 9 9 9 9 9 9 10 10 10 11 11 12 12 12
3 1 1 1 0 0 1 1 1 2 3 3 3 4 4 5 5 5 5 6 6 6 6 6 7 8 8 9 9 10 10 10 10 10 11 11 11 12 12 12 13 13 14
4 2 1 1 1 1 1 1 2 3 3 3 4 5 5 6 6 7 7 7 7 7 8 8 9 9 10 10 10 11 11 11 12 12 12 12 12 12 12 13 14 14 15
6 5 3 2 2 2 2 2 3 4 4 5 6 6 6 6 6 7 7 8 8 8 9 10 10 11 11 11 12 12 12 13 13 13 13 13 14 14 14 14 14 15 15
6 6 5 4 3 4 4 4 4 5 6 6 6 6 6 7 7 7 9 9 9 10 10 10 11 11 12 13 13 14 14 14 14 14 14 14 14 14 15 15 15 16 16
7 7 7 6 5 5 5 5 5 6 7 7 7 7 7 8 8 8 8 9 10 11 11 11 11 12 13 14 14 15 15 15 15 15 15 16 16 16 15 17 18 18 18
9 8 8 7 7 6 5 6 6 7 7 8 8 8 8 8 9 9 9 10 10 11 12 12 13 14 14 15 15 16 16 16 16 16 16 16 17 17 17 18 18 18 19
10 10 9 9 8 8 7 7 8 8 8 9 9 9 10 10 10 10 11 12 12 13 13 13 14 15 15 15 16 16 16 16 16 16 16 17 18 18 18 18 18 18 18
10 10 11 10 9 8 8 8 8 9 10 10 10 11 11 11 11 12 13 13 14 14 15 15 15 15 15 15 16 16 16 16 17 17 17 18 19 19 18 18 19 19 20
11 11 11 11 10 9 9 9 10 10 10 11 11 12 12 13 13 13 14 15 15 15 16 16 16 16 16 16 16 16 16 16 17 18 18 18 19 19 20 20 21 21 22
12 12 12 12 12 11 10 10 11 11 11 12 12 12 13 14 14 15 15 15 15 16 16 16 16 16 16 16 17 17 17 17 17 17 17 18 19 20 20 21 21 22 23
13 13 13 14 13 13 13 12 12 12 12 12 13 13 14 14 15 15 15 16 16 17 16 16 16 16 17 17 18 18 18 18 19 19 19 20 20 20 21 22 22 22 24
15 15 15 15 15 15 14 14 14 14 14 14 14 14 15 15 16 16 16 16 17 18 18 18 18 18 18 19 19 20 19 20 21 21 21 21 22 22 22 23 24 24 25
16 17 17 16 16 16 16 16 15 15 15 15 15 15 15 15 16 17 17 18 18 19 19 19 19 19 19 19 20 20 21 21 22 22 22 22 23 23 24 24 25 25 25
18 18 18 18 17 17 17 17 16 16 16 16 16 16 16 17 17 18 18 18 19 19 20 20 20 20 20 20 21 21 21 22 23 23 23 23 24 24 25 26 26 26 27
18 19 19 19 18 18 18 18 18 18 17 17 17 17 17 18 18 19 19 20 20 21 21 21 21 21 21 22 22 22 22 22 23 24 24 24 25 25 26 26 26 27 27
19 19 19 19 19 19 19 19 19 19 19 19 18 18 19 19 19 20 20 21 21 22 21 22 22 22 22 23 23 23 23 24 25 25 25 25 25 26 26 26 26 27 27
20 20 20 20 20 20 21 21 21 21 20 20 20 20 20 20 20 20 21 22 22 22 23 23 23 24 24 24 25 25 25 25 26 26 26 27 27 27 27 27 27 28 28
21 22 21 21 22 22 22 23 22 22 21 21 21 21 21 21 22 22 22 23 24 24 24 25 25 26 26 27 26 26 27 26 26 27 27 27 27 28 28 28 28 29 29
22 23 23 23 23 23 23 24 24 23 23 22 22 22 22 23 23 23 24 25 26 26 26 26 27 27 27 27 27 27 28 28 28 28 28 28 28 28 29 29 29 29 30
24 25 25 24 24 24 24 25 25 25 24 24 24 24 25 25 25 26 26 26 26 27 27 27 28 28 28 28 28 28 28 28 28 29 29 28 29 29 29 30 30 30 30
26 26 26 26 26 26 27 27 27 27 26 25 25 26 26 27 27 27 28 28 28 28 27 27 28 28 28 29 29 28 28 29 29 29 29 29 29 29 29 30 30 30 30
27 27 28 28 28 29 29 29 29 28 28 27 27 28 28 28 28 28 29 29 28 28 28 28 28 29 29 28 28 28 29 29 30 30 30 30 30 30 29 29 30 29 30

GEFSMA_500_meanwind_222.txt.gz
Wind_Speed
5 5 6 6 6 5 5 4 4 3 3 3 3 3 3 3 3 3 3 3 3 3 3 3 3 3 3 3 3 3 4 4 4 4 5 5 5 6 6 6 7 7 7
5 5 5 5 5 4 4 3 3 2 2 3 3 3 2 2 3 3 3 4 3 3 4 4 4 4 4 5 5 5 5 6 6 6 7 7 7 7 8 8 9 9 9
5 5 4 4 3 3 3 3 2 2 2 2 3 3 3 3 4 4 4 4 4 4 5 5 5 5 6 6 6 6 7 7 7 8 8 8 8 9 9 10 10 10 11
5 4 4 4 3 3 2 2 1 1 2 2 2 3 4 4 5 6 6 6 6 6 6 6 7 7 7 7 8 8 8 9 9 9 9 10 10 10 11 11 12 12 12
5 4 4 3 3 2 1 1 1 2 2 3 3 4 5 5 6 7 7 8 7 8 8 8 9 9 9 9 9 9 10 10 11 11 11 12 12 12 12 13 13 14 14
5 5 4 3 3 2 0 1 1 2 2 3 4 5 5 5 6 7 8 8 9 9 9 9 10 10 10 10 10 11 11 12 12 12 13 13 14 14 14 14 14 14 15
6 5 4 3 3 2 1 0 1 2 2 3 4 4 5 5 6 7 7 9 10 10 10 10 10 10 10 11 11 12 12 12 13 13 14 14 15 15 15 16 16 16 16
6 6 5 4 3 3 2 1 1 2 3 3 4 5 6 6 6 6 7 8 9 9 10 10 10 11 11 12 12 12 13 13 14 15 15 16 16 16 17 18 18 17 18
7 6 5 5 4 3 3 2 1 2 3 4 5 5 6 7 7 7 7 8 7 8 9 10 11 11 12 12 13 14 15 15 16 16 16 17 17 18 18 18 18 18 18
8 7 6 5 4 3 3 3 3 3 4 5 5 6 6 7 6 7 7 8 8 9 9 9 10 11 12 13 14 15 17 17 17 16 16 17 18 18 19 19 19 19 19
9 9 8 7 6 5 4 4 4 4 5 5 5 6 7 7 7 8 9 9 9 10 10 11 11 11 12 13 15 16 16 17 17 17 16 17 18 18 19 20 19 20 20
9 9 8 8 7 7 5 5 5 5 5 6 6 8 8 8 8 9 10 10 10 11 12 12 13 13 14 14 15 16 16 16 17 17 18 18 19 19 19 19 19 20 20
10 10 9 9 8 7 7 6 6 6 7 7 8 9 9 10 10 10 11 11 12 12 13 14 14 15 15 16 16 17 17 17 17 18 18 19 19 19 19 20 20 21 21
10 10 10 10 10 9 8 7 7 8 8 8 9 9 10 10 10 11 12 12 12 13 14 14 15 16 17 16 17 17 18 18 18 18 18 19 19 20 20 21 21 22 22
10 11 11 11 10 10 9 9 9 9 10 10 10 11 11 12 12 13 13 14 14 15 15 15 16 16 17 17 18 18 19 19 19 19 19 20 20 21 21 22 23 24 25
12 12 12 11 11 11 10 10 10 10 11 11 12 12 12 13 13 14 15 15 15 15 16 17 17 17 18 18 18 19 20 20 20 21 21 21 21 22 23 23 24 24 25
12 13 13 13 13 13 12 12 12 12 12 13 13 13 13 14 14 15 15 15 16 17 18 18 18 18 18 19 20 21 21 21 21 22 22 22 23 23 23 23 24 25 25
13 13 14 14 15 14 14 13 13 13 14 14 14 15 15 15 15 15 16 17 17 18 18 18 18 19 19 20 21 21 22 22 22 23 23 24 24 24 24 24 25 25 25
13 14 15 15 15 15 15 15 15 15 15 15 15 16 16 16 16 16 17 17 18 19 19 19 19 20 21 21 21 22 23 23 23 23 24 25 25 25 25 25 26 26 27
14 15 16 16 16 16 16 16 16 15 15 16 16 17 17 17 17 17 17 18 19 19 20 20 21 21 22 23 23 23 24 25 25 26 26 26 26 26 26 26 26 27 27
15 15 16 17 17 17 17 17 17 17 17 17 17 17 17 17 18 18 19 19 19 19 20 21 22 24 24 25 24 24 25 26 26 26 26 26 26 27 27 27 27 27 27
16 16 16 17 18 18 18 18 18 18 18 18 18 18 18 18 19 19 20 20 20 21 21 23 24 25 25 26 26 26 26 26 26 26 27 27 27 27 27 27 27 27 28
18 18 18 18 19 20 20 20 20 20 20 20 20 19 20 20 20 21 21 21 22 23 23 24 24 25 26 26 26 26 26 27 27 27 27 27 27 27 27 27 27 27 28
19 19 20 20 21 22 22 22 22 22 22 22 22 22 22 23 22 22 22 23 23 24 25 26 26 27 27 26 27 27 27 28 28 28 27 27 28 28 29 28 29 29 30
21 21 22 22 22 23 23 23 23 23 23 23 24 24 24 24 24 24 25 25 25 25 26 27 27 27 27 27 27 28 28 28 29 29 28 28 28 28 29 29 29 29 30
24 24 24 24 24 24 25 24 25 25 25 25 26 26 26 26 26 26 27 27 26 26 27 27 27 28 28 28 29 29 29 29 29 29 28 28 28 28 28 29 29 29 29

GEFSMA_500_meanwind_228.txt.gz
Wind_Speed
7 7 7 7 6 6 5 4 4 4 3 2 2 3 3 3 3 3 3 3 3 3 4 4 4 5 5 5 5 5 5 6 6 6 6 6 6 7 7 8 8 8 8
6 6 6 5 5 5 4 4 3 3 3 3 3 3 3 3 3 3 4 4 4 4 5 5 5 6 6 7 7 7 7 7 7 7 7 8 8 9 9 9 10 10 10
5 5 5 4 4 3 3 3 2 2 3 3 3 3 3 3 3 4 4 5 5 6 6 7 7 7 7 8 8 9 9 9 9 9 9 9 10 10 10 11 11 11 12
5 5 4 3 3 2 2 2 2 1 2 2 3 3 3 4 4 5 5 6 6 7 7 8 8 9 9 9 10 10 11 11 11 11 11 11 11 12 12 12 12 13 13
5 4 3 2 2 2 1 1 1 1 2 2 2 3 4 5 5 6 7 7 8 8 9 9 9 9 10 11 11 11 12 12 12 13 13 13 13 14 14 13 13 13 14
4 3 2 2 1 1 1 0 1 1 2 3 4 4 4 4 5 6 6 7 7 8 9 10 10 11 11 12 12 12 13 13 13 14 14 14 14 15 15 15 15 15 15
4 4 2 1 1 0 1 1 2 3 2 3 4 4 4 5 5 6 6 7 8 9 10 10 10 11 12 12 13 13 14 14 14 14 14 15 15 15 16 17 17 17 17
4 3 3 2 1 1 1 2 2 2 3 3 4 5 5 5 5 6 7 8 9 10 11 11 12 12 12 12 12 13 13 14 14 14 15 15 16 17 17 18 19 19 19
5 3 2 2 1 1 2 2 3 3 4 4 4 5 5 6 7 7 8 9 10 10 10 11 11 11 12 11 11 13 14 14 14 15 16 17 17 18 18 18 18 19 19
6 5 4 3 3 2 3 3 3 4 5 5 5 6 6 8 8 8 9 9 9 10 10 11 12 12 12 12 12 13 14 15 15 16 17 17 18 18 19 19 19 19 20
7 6 5 5 5 3 3 3 4 5 6 7 7 8 8 8 9 9 9 10 10 10 11 11 11 13 13 13 14 15 16 16 17 17 17 17 17 18 19 19 20 20 20
6 6 6 6 6 5 5 5 5 6 7 7 8 8 9 9 9 10 10 11 11 11 12 12 13 13 14 15 15 16 16 17 18 17 17 18 18 19 19 20 20 20 20
7 6 6 6 6 6 6 6 6 6 6 7 8 9 9 10 10 11 11 11 12 13 13 14 14 15 15 16 16 17 17 18 18 18 19 19 20 20 20 21 21 22 22
6 6 6 7 7 7 7 7 7 7 7 8 8 10 10 11 12 12 13 13 14 14 15 15 16 17 17 17 17 18 18 18 18 19 19 20 20 21 21 22 22 22 23
6 6 7 7 8 8 8 8 8 8 8 9 9 10 12 13 13 14 14 14 15 15 16 17 17 17 18 18 18 18 19 19 19 20 20 21 21 21 22 22 23 24 24
6 7 8 8 8 8 9 9 9 9 9 10 11 12 13 14 15 15 15 16 17 17 18 18 19 19 19 19 19 20 19 20 21 21 21 22 22 23 23 23 24 25 25
8 8 9 9 9 9 10 10 11 11 12 12 13 14 14 14 15 16 16 17 17 18 19 19 20 20 20 20 20 20 20 21 21 22 23 23 24 24 25 25 25 26 26
9 10 10 10 11 11 12 13 13 14 14 15 15 15 16 16 16 17 17 18 18 19 19 18 19 19 20 20 21 21 21 22 23 24 25 25 26 26 26 26 26 26 27
11 12 12 12 12 13 14 14 15 15 15 16 16 17 17 16 17 17 18 18 19 19 19 19 19 20 21 22 22 22 23 24 25 26 26 26 26 26 27 27 27 28 28
12 13 13 14 14 14 15 16 16 16 16 16 17 17 18 17 18 19 19 20 20 20 21 22 22 23 23 23 24 24 25 26 26 26 26 26 27 27 28 28 29 29 30
14 15 15 15 16 16 17 17 17 17 17 18 18 19 19 19 19 20 20 21 22 22 23 23 24 24 25 25 26 26 27 27 28 28 28 28 28 28 29 30 30 31 31
16 17 17 17 17 18 18 18 18 19 19 20 20 21 21 21 21 22 22 23 24 24 24 24 25 25 25 26 27 27 27 28 29 29 29 29 29 29 30 30 31 31 31
19 19 20 20 20 20 20 20 20 21 21 22 23 23 23 23 24 24 24 25 25 25 26 26 26 26 27 27 28 28 28 29 29 29 29 29 30 30 31 31 31 31 31
22 22 22 22 22 22 22 22 22 23 23 24 24 24 25 25 26 27 27 26 27 27 27 27 28 28 28 28 28 29 29 29 29 30 30 30 31 31 31 32 31 31 31
24 24 24 25 25 24 24 24 24 25 25 26 26 26 26 26 27 28 29 29 28 28 28 28 28 28 28 29 29 29 29 30 30 30 30 31 31 31 31 31 31 31 31
27 27 27 27 27 27 27 27 27 27 27 28 28 28 29 29 29 29 30 30 30 29 29 30 29 29 29 30 30 30 30 30 30 30 30 30 30 31 31 31 31 31 31

GEFSMA_500_meanwind_234.txt.gz
Wind_Speed
8 8 8 7 7 7 6 6 6 6 5 4 4 4 4 4 5 4 4 4 4 4 4 4 4 4 4 5 5 6 6 6 6 6 6 6 7 7 7 8 8 9 9
7 7 6 6 6 5 5 5 5 4 3 3 3 4 4 4 5 5 5 5 5 5 5 5 5 5 5 6 7 7 7 7 8 8 8 8 8 8 9 9 10 10 10
6 6 6 5 5 4 4 5 4 4 3 4 3 3 4 5 5 5 5 6 6 6 6 6 6 6 7 7 8 8 9 9 10 10 10 10 9 10 10 11 11 11 11
5 5 5 5 4 4 3 3 4 4 4 4 4 4 4 4 5 5 5 6 6 6 6 7 7 8 8 8 9 9 10 10 10 11 11 10 10 11 12 13 12 12 12
5 5 4 4 3 3 3 3 3 4 4 4 4 4 5 5 5 5 5 6 6 7 7 7 8 9 10 10 10 11 11 11 11 11 11 12 12 13 13 14 14 14 14
4 4 4 3 3 2 2 3 3 3 4 4 5 5 5 5 5 6 6 6 7 8 8 9 9 10 11 11 12 12 13 13 13 13 13 13 13 14 14 14 14 15 15
4 3 3 3 2 2 2 2 2 3 3 3 4 4 5 5 6 6 6 7 8 8 9 10 11 11 12 12 12 13 13 14 14 14 14 14 14 15 14 15 15 16 16
4 3 2 2 2 1 2 2 2 3 3 3 3 4 5 5 6 6 7 8 8 9 10 11 11 12 12 13 13 14 14 13 14 14 15 15 15 15 16 16 16 16 16
4 3 2 1 1 1 2 3 3 2 2 3 3 4 4 5 6 7 8 9 10 10 11 11 12 12 12 13 14 14 14 13 14 15 16 16 16 16 16 16 16 16 17
4 4 3 3 2 1 1 1 2 3 4 5 5 6 6 6 7 8 9 9 10 11 11 11 12 12 12 13 13 13 14 15 15 15 16 17 17 17 17 17 17 18 18
5 4 4 3 3 2 1 2 2 3 4 5 5 6 7 8 9 9 10 10 11 11 12 12 13 13 13 14 14 15 16 16 16 16 17 17 17 17 18 18 19 19 18
4 4 4 4 4 3 2 3 4 4 5 5 6 6 7 8 8 9 10 11 11 12 13 13 13 13 14 14 14 14 15 16 16 16 17 17 17 18 18 19 19 20 20
3 3 3 3 4 4 4 5 5 5 5 5 6 7 8 9 9 11 11 12 13 13 13 13 14 14 15 15 15 15 16 17 18 18 18 18 19 19 19 19 20 21 21
3 2 3 3 4 4 5 5 6 6 6 6 7 8 9 10 11 11 12 13 13 14 14 15 16 16 17 17 17 17 18 19 19 19 19 19 20 20 20 20 21 22 22
3 3 3 4 4 5 6 7 7 7 7 7 8 9 10 11 11 12 12 13 14 15 15 16 17 17 17 18 18 18 19 20 20 20 21 21 21 21 21 21 22 23 23
5 5 5 6 7 8 8 9 9 9 9 9 10 10 11 12 13 13 14 15 16 16 17 17 18 19 19 20 20 20 21 21 21 21 22 22 22 22 22 23 24 24 24
7 7 8 9 10 10 11 11 11 10 10 10 11 12 13 14 15 15 16 17 17 18 18 18 19 20 21 21 22 22 23 23 22 23 23 23 23 24 25 25 25 25 26
10 10 10 10 11 12 12 13 12 12 13 13 13 14 15 15 16 17 17 18 18 19 20 20 20 21 22 23 23 24 24 25 24 24 25 25 25 26 26 26 26 26 27
12 12 12 12 12 13 14 14 14 14 14 14 15 16 16 17 18 19 19 19 20 21 22 22 23 23 24 24 23 24 24 25 25 26 26 26 26 27 27 27 28 28 28
14 14 14 14 15 15 15 15 15 15 15 16 16 17 18 18 19 20 20 21 22 23 24 24 24 24 24 24 24 25 25 25 26 27 27 27 28 28 28 28 28 29 29
16 15 16 16 17 17 17 17 17 17 17 17 18 18 18 19 20 21 22 23 24 25 25 25 25 25 24 24 25 25 26 27 27 28 29 29 29 29 29 29 30 30 30
17 16 16 17 18 19 18 18 18 18 19 18 19 20 20 21 22 23 24 25 25 25 25 25 25 25 25 26 27 27 28 28 28 29 29 29 29 30 30 30 30 31 31
20 18 18 18 19 20 20 20 20 20 20 20 21 22 23 23 23 24 25 26 26 26 27 26 27 27 28 28 29 29 28 29 29 29 30 30 30 30 30 30 31 31 31
22 20 20 21 21 22 22 23 22 22 22 23 23 24 25 25 26 26 26 27 27 27 28 28 28 28 29 29 29 29 29 30 30 30 31 30 30 30 30 31 31 31 30
25 25 24 24 25 26 26 26 25 25 26 26 26 28 28 28 28 28 28 28 28 29 29 29 28 29 29 29 29 30 30 31 31 32 32 31 31 31 31 31 31 31 31
28 29 29 28 28 28 29 29 28 28 28 29 29 30 30 31 30 29 28 28 29 30 30 30 30 30 30 30 30 31 31 31 31 31 31 31 31 31 32 32 32 31 31

GEFSMA_500_meanwind_240.txt.gz
Wind_Speed
7 7 7 6 5 5 5 5 5 5 4 4 3 2 3 3 3 3 3 2 2 2 3 3 4 4 5 5 5 5 6 7 7 8 8 8 8 8 8 8 8 8 8
7 6 6 6 5 4 4 4 5 4 3 2 2 2 2 2 3 3 3 3 3 3 3 4 4 5 5 5 6 7 7 8 9 9 9 9 9 9 9 9 9 10 10
5 5 5 4 4 3 3 3 3 2 1 1 2 2 2 2 2 3 4 5 5 4 5 5 5 6 6 6 7 8 8 9 9 10 10 10 10 11 11 11 11 11 11
4 4 3 3 3 2 1 1 1 1 1 1 2 2 3 3 3 3 4 5 5 5 5 6 6 7 7 7 7 8 9 9 10 10 10 11 11 12 12 12 12 12 12
3 3 3 2 2 2 1 0 1 1 1 2 3 3 3 3 4 5 5 5 5 6 6 6 7 8 8 8 9 9 10 11 11 11 11 11 12 12 12 12 12 13 13
2 2 2 2 1 1 1 1 2 2 2 3 3 4 5 5 5 5 5 5 5 6 7 7 7 8 9 9 10 10 11 12 12 12 12 12 12 12 12 13 13 13 13
2 1 1 1 1 1 2 2 2 2 3 3 4 4 5 5 5 5 5 5 6 7 8 8 9 9 10 10 11 11 12 12 12 13 13 13 13 13 13 13 13 14 14
3 2 1 1 2 2 2 2 2 3 4 4 4 4 4 5 5 5 6 7 7 8 9 10 10 10 11 11 11 12 12 13 13 13 14 14 14 14 14 14 14 14 14
4 3 3 3 3 2 3 2 3 3 3 4 4 5 5 5 6 6 7 8 8 9 9 10 11 11 11 12 12 13 13 13 13 14 14 15 15 15 15 15 15 16 16
5 5 4 4 3 3 3 3 3 4 4 5 5 5 5 5 6 7 8 8 9 10 10 10 10 10 11 12 12 13 14 14 14 15 15 15 15 15 15 15 15 16 17
5 5 5 5 5 5 4 4 4 5 5 6 7 7 7 7 7 8 8 9 9 9 10 10 10 11 11 12 13 13 14 15 15 15 15 15 15 15 16 16 17 17 17
4 4 4 5 5 6 5 5 5 6 6 7 7 7 7 8 8 8 9 9 10 11 11 11 11 12 13 13 14 14 15 15 16 16 16 16 17 17 17 18 18 18 18
4 4 5 5 6 6 6 6 7 7 7 7 7 8 8 8 9 9 10 11 11 12 12 12 13 13 14 15 15 16 17 17 18 18 18 18 19 19 19 19 19 19 20
4 4 5 5 7 7 7 7 8 8 8 8 8 8 9 9 10 11 12 12 12 13 13 13 14 14 15 16 17 18 18 18 19 19 19 19 20 20 19 19 19 20 20
5 5 6 6 8 8 9 9 9 9 9 9 10 10 10 11 12 13 13 14 14 14 14 15 15 16 17 18 18 20 20 20 21 21 21 21 21 20 20 21 21 21 22
5 6 7 8 9 9 10 10 10 11 11 11 11 11 12 12 13 14 15 16 16 16 16 16 17 18 18 19 20 21 21 22 22 23 22 22 22 22 22 22 22 23 23
8 8 9 9 10 11 11 12 12 12 12 13 13 13 13 14 15 16 16 17 17 17 17 18 19 20 20 20 21 21 22 23 24 24 23 23 23 23 23 23 23 24 24
10 10 10 11 12 12 13 13 13 13 13 13 13 14 14 15 16 17 17 18 19 19 19 20 21 21 22 22 23 23 24 24 25 25 24 23 23 23 24 24 24 24 24
11 12 13 14 14 14 15 15 15 15 14 15 15 16 16 17 18 18 18 19 20 20 21 21 22 22 23 24 25 25 25 25 26 24 24 24 24 24 24 25 25 25 25
14 14 15 16 16 16 17 17 17 16 17 17 17 18 18 19 20 20 20 21 21 22 22 22 23 24 25 25 26 26 25 25 25 24 24 24 25 25 25 25 25 26 26
16 16 17 18 18 18 19 18 18 18 18 18 18 19 20 21 22 22 22 23 23 23 24 24 25 26 27 27 27 27 27 26 25 25 25 24 25 25 26 26 26 26 27
18 18 18 19 20 20 21 20 20 20 19 19 20 21 22 23 23 23 23 24 25 25 26 26 26 27 27 27 28 28 27 26 26 26 26 25 25 25 25 26 27 27 28
21 21 21 22 22 22 23 23 23 23 22 22 22 22 23 24 24 24 24 25 26 26 27 28 28 28 29 29 29 28 28 27 27 27 27 26 26 27 27 27 28 28 28
24 23 24 24 24 25 25 26 26 26 24 24 24 24 24 25 26 26 26 27 28 29 29 30 29 30 30 30 29 29 29 29 28 28 29 29 28 29 29 29 29 30 30
27 27 26 26 26 26 26 27 27 27 27 26 27 28 27 28 28 29 29 29 30 30 31 30 29 30 31 31 30 29 30 30 29 29 29 30 30 30 30 30 30 30 30
29 29 29 29 28 28 28 29 29 30 29 29 30 30 30 30 31 31 31 31 31 31 31 30 31 31 31 31 32 30 30 30 30 30 31 31 31 31 30 30 31 31 31